Regional Weather Roundup
Issued by NWS

Home | Current Version | Previous Version | Graphics & Text | Print | Product List | Glossary On
Versions: 1 2 3 4 5 6 7 8 9 10 11 12 13 14 15 16 17 18 19 20 21 22 23 24 25 26 27 28 29 30 31 32 33 34 35 36 37 38 39 40 41 42 43 44 45 46 47 48 49 50
000
ASUS43 KLOT 251809
RWRIL

ILLINOIS REGIONAL WEATHER ROUNDUP
NATIONAL WEATHER SERVICE CHICAGO/ROMEOVILLE IL
100 PM CDT SUN JUN 25 2017

NOTE: "FAIR" INDICATES FEW OR NO CLOUDS BELOW 12,000 FEET WITH NO
SIGNIFICANT WEATHER AND/OR OBSTRUCTIONS TO VISIBILITY.

* THESE STATIONS ARE NOT UNDER NWS QUALITY CONTROL. THEY ALSO MAY NOT
  REPORT WEATHER SUCH AS PRECIPITATION OR FOG.

ILZ001-002-007-009-015-016-024-251900-
NORTHWEST ILLINOIS

CITY           SKY/WX    TMP DP  RH WIND       PRES   REMARKS
MOLINE         CLOUDY    69  47  45 W20G30    30.17S
6HR MIN TEMP:  58; 6HR MAX TEMP:  70;

STERLING*      CLOUDY    66  50  56 W16       30.15S
SAVANNA*       CLOUDY    64  47  54 W17G23    30.16R
$$

ILZ003-004-008-010-011-017-018-251900-
NORTH CENTRAL ILLINOIS

CITY           SKY/WX    TMP DP  RH WIND       PRES   REMARKS
ROCKFORD       PTSUNNY   69  48  47 NW15      30.13S
6HR MIN TEMP:  56; 6HR MAX TEMP:  70;

FREEPORT*      CLOUDY    63  48  58 W13G22    30.15S
ROCHELLE*      CLOUDY    66  47  51 W20       30.14S
DE KALB*       PTSUNNY   68  46  46 W17G26    30.13S
PERU*          PTSUNNY   68  46  45 W18G24    30.15S
$$

ILZ005-006-012>014-019>023-251900-
NORTHEAST ILLINOIS

CITY           SKY/WX    TMP DP  RH WIND       PRES   REMARKS
CHICAGO-OHARE  PTSUNNY   70  46  42 W14G24    30.09F
6HR MIN TEMP:  57; 6HR MAX TEMP:  71;

CHICAGO-MIDWAY PTSUNNY   70  44  39 NW14G25   30.10F
6HR MIN TEMP:  59; 6HR MAX TEMP:  71;

AURORA         PTSUNNY   70  46  42 W21G28    30.12F
6HR MIN TEMP:  55; 6HR MAX TEMP:  71;

LANSING*       MOSUNNY   70  44  39 W15G24    30.12S
JOLIET*        PTSUNNY   72  44  35 W10G23    30.12F
WAUKEGAN       MOSUNNY   69  49  48 W9G21     30.07F
6HR MIN TEMP:  57; 6HR MAX TEMP:  69;

DUPAGE AIRPORT PTSUNNY   68  49  50 W12G21    30.10F
6HR MIN TEMP:  56; 6HR MAX TEMP:  69;

WHEELING       MOSUNNY   69  47  45 NW15G23   30.10F
6HR MIN TEMP:  57; 6HR MAX TEMP:  70;

MORRIS*        PTSUNNY   71  43  36 W20G25    30.12S
ROMEOVILLE*    MOSUNNY   72  41  32 W17       30.12S
NORTHERLY ISL    N/A     68  43  40 W5          N/A
$$

LMZ740>746-251900-
SOUTHERN LAKE MICHIGAN

STATION/POSITION SKY/WX   TEMP    WIND        PRES    VSBY  WAVE
                          AIR SEA DIR/SP/G                  HT/PER
                          (F)     (DEG/KT/KT) (MB)    (MI)  (FT/S)
SOUTHERN BUOY              62 61  270/ 12/ 14 1018.2F         3/ 4
WILMETTE HARBOR            66 64  280/ 12/ 17   N/A           2/ 3
HARRISON CRIB              67     290/ 17/ 22   N/A
BURNHAM HARBOR             68                   N/A
CALUMET HARBOR             68     260/  7/ 13 1018.8F
BURNS HARBOR               66     290/ 14/ 16 1020.0S
MICHIGAN CITY              65     260/ 14/ 16   N/A
MICHIGAN CITY 6N           65 66  280/ 12/ 16   N/A           3/ 4
ST. JOSEPH                 64 69  270/ 14/ 17 1019.4          4/ 5
$$

ILZ025>027-034>036-040-047-049-050-058-095>099-251900-
WEST-CENTRAL ILLINOIS

CITY           SKY/WX    TMP DP  RH WIND       PRES   REMARKS
QUINCY         SUNNY     74  46  36 W17G28    30.21F
GALESBURG*     PTSUNNY   69  47  46 W15G26    30.20S
MACOMB*        MOSUNNY   69  47  44 NW15G21   30.22S
JACKSONVILLE*  SUNNY     74  47  37 W13G20    30.19F
PITTSFIELD*    SUNNY     74  46  36 W14G22    30.21F
$$

ILZ028>032-037-038-041>044-048-051>054-059>061-251900-
CENTRAL ILLINOIS

CITY           SKY/WX    TMP DP  RH WIND       PRES   REMARKS
PONTIAC        PTSUNNY   72  45  38 W18G28    30.16S
BLOOMINGTON    MOSUNNY   72  46  39 W20       30.17F
DECATUR        SUNNY     75  45  34 W17G24    30.17F
PEORIA         MOSUNNY   71  46  40 W14G22    30.17F
6HR MIN TEMP:  57; 6HR MAX TEMP:  72;

LACON*         PTSUNNY   70  46  42 W13G25    30.15F
LINCOLN*       SUNNY     75  45  34 W8        30.17F
SPRINGFIELD    SUNNY     77  48  35 W17G23    30.18F
6HR MIN TEMP:  59; 6HR MAX TEMP:  77;

TAYLORVILLE    SUNNY     75  47  37 W13G22    30.19F
6HR MIN TEMP:  59; 6HR MAX TEMP:  75;

$$

ILZ033-039-045-046-055>057-062-063-251900-
EAST-CENTRAL ILLINOIS

CITY           SKY/WX    TMP DP  RH WIND       PRES   REMARKS
CHAMPAIGN      SUNNY     74  43  32 W17G26    30.16F
RANTOUL*       PTSUNNY   74  47  38 W13G22    30.16S
MATTOON        SUNNY     75  50  41 W12G23    30.16F
PARIS*         MOSUNNY   73  52  46 W14G22    30.17F
$$

ILZ079-100>102-251900-
SOUTHWEST ILLINOIS

CITY           SKY/WX    TMP DP  RH WIND       PRES   REMARKS
ALTON          SUNNY     77  54  44 W15       30.21F
BELLEVILLE     MOSUNNY   81  46  30 W13G22    30.22S HX  80
CAHOKIA*       SUNNY     83  43  24 NW15G22   30.20F HX  81
SPARTA*        SUNNY     81  48  31 NW9G18    30.22S HX  80
$$

ILZ064>066-069>071-074>076-080>082-084>086-088>090-092>094-251900-
SOUTH-CENTRAL ILLINOIS

CITY           SKY/WX    TMP DP  RH WIND       PRES   REMARKS
CARBONDALE     SUNNY     81  52  36 W10       30.20F HX  80
6HR MIN TEMP:  59; 6HR MAX TEMP:  82;

CAIRO*         SUNNY     81  55  41 W9        30.23F HX  81
EFFINGHAM*     SUNNY     78  49  34 W17G24    30.19F
MARION         SUNNY     81  50  34 W12       30.21F HX  80
MT. VERNON     SUNNY     79  51  37 W9G18     30.19F
CENTRALIA*     SUNNY     80  51  36 W10G18    30.20S HX  80
SALEM*         SUNNY     79  47  32 W12G17    30.20S
METROPOLIS*    SUNNY     82  51  34 W10       30.23F HX  81
$$

ILZ067-068-072-073-078-083-087-091-251900-
SOUTHEAST ILLINOIS

CITY           SKY/WX    TMP DP  RH WIND       PRES   REMARKS
LAWRENCEVILLE  SUNNY     78  51  38 W17       30.18F
FLORA*         SUNNY    N/A N/A N/A W10G21    30.19S
FAIRFIELD*     SUNNY     80  49  34 W6        30.17F
HARRISBURG*    SUNNY     82  55  39 W18G25    30.20F HX  81
ROBINSON*      SUNNY     75  51  43 NW9G20    30.18F
CARMI*         SUNNY     81  54  39 W12G23    30.19F HX  80
$$

ABBREVIATIONS USED IN REMARKS
   TC - TEMPERATURE IN CELSIUS
  WCI - WIND CHILL INDEX
   HX - HEAT INDEX
  VSB - VISIBILITY
$$




USA.gov is the U.S. government's official web portal to all federal, state and local government web resources and services.